Home > Weather > Hagen > Past weeks

Flag for Germany Past Weather in Hagen, North Rhine-Westphalia, Germany — Yesterday and Last 2 Weeks

Now
64 °F

Partly sunny.


Feels Like: 64 °F
Forecast: 54 / 66 °F
Wind: 14 mph from West

Location: Dortmund / Wickede

Current Time: Jul 30, 2016 at 11:26:09 AM

Latest Report: Jul 30, 2016 at 10:50 AM


Visibility: N/A

Pressure: 29.92 "Hg

Humidity: 64%

Dew Point: 52 °F

Location of HagenLocation

Past Weather in Hagen — Graph

°F

Hagen Temperature Yesterday

Maximum temperature yesterday: 72 °F (at 2:50 PM)
Minimum temperature yesterday: 59 °F (at 5:20 AM)
Average temperature yesterday: 66 °F

High & Low Weather Summary for the Past Weeks

 TemperatureHumidityPressure
High91 °F (Jul 20, 3:20 PM)88% (Jul 18, 5:20 AM)30.30 "Hg (Jul 18, 5:20 AM)
Low55 °F (Jul 18, 5:50 AM)20% (Jul 20, 5:20 PM)29.86 "Hg (Jul 20, 6:20 PM)
Average70 °F62%30.07 "Hg
* Reported Jul 15 9:20 AM — Jul 30 9:50 AM, Hagen, Weather by CustomWeather, © 2016

Note: Actual official high and low records may vary slightly from our data, if they occured in-between our weather recording intervals... More about our weather records

Advertising

Hagen Weather History for the Previous 24 Hours

Scroll right to see more
 ConditionsComfort  
Time TempWeatherWind HumidityBarometerVisibility
9:50 AM
Sat, Jul 30
64 °FScattered clouds.15 mph64%29.92 "HgN/A
9:20 AM63 °FPassing clouds.12 mph68%29.89 "HgN/A
8:50 AM64 °FPassing clouds.12 mph64%29.92 "HgN/A
8:20 AM63 °FPassing clouds.15 mph68%29.92 "HgN/A
7:50 AM63 °FPassing clouds.12 mph68%29.89 "HgN/A
7:20 AM61 °FPassing clouds.8 mph72%29.89 "HgN/A
6:50 AM61 °FPassing clouds.7 mph72%29.89 "HgN/A
6:20 AM61 °FPassing clouds.8 mph72%29.89 "HgN/A
5:50 AM61 °FPassing clouds.8 mph72%29.89 "HgN/A
5:20 AM61 °FClear.7 mph72%29.89 "Hg10 mi
9:50 PM
Fri, Jul 29
66 °FScattered clouds.9 mph60%29.89 "HgN/A
9:20 PM68 °FPassing clouds.10 mph60%29.89 "HgN/A
8:50 PM70 °FPassing clouds.9 mph57%29.86 "HgN/A
8:20 PM70 °FPassing clouds.7 mph60%29.86 "HgN/A
7:50 PM70 °FPassing clouds.9 mph60%29.86 "HgN/A
7:20 PM70 °FSunny.13 mph60%29.86 "Hg10 mi
6:50 PM70 °FSunny.14 mph64%29.86 "Hg10 mi
6:20 PM70 °FSunny.14 mph60%29.86 "Hg10 mi
5:50 PM70 °FScattered clouds.12 mph60%29.86 "HgN/A
5:20 PM70 °FScattered clouds.14 mph57%29.86 "HgN/A
4:50 PM72 °FSunny.13 mph57%29.86 "Hg10 mi
4:20 PM70 °FPassing clouds.14 mph60%29.86 "HgN/A
3:50 PM72 °FPartly sunny.13 mph57%29.89 "HgN/A
3:20 PM72 °FPartly sunny.13 mph57%29.89 "HgN/A
2:50 PM72 °FScattered clouds.12 mph61%29.89 "HgN/A
2:20 PM70 °FBroken clouds.13 mph64%29.89 "HgN/A
1:50 PM68 °FDrizzle. Partly sunny.14 mph69%29.89 "HgN/A
1:20 PM66 °FBroken clouds.14 mph73%29.89 "HgN/A
12:50 PM64 °FDrizzle. Broken clouds.13 mph78%29.92 "Hg6 mi
12:20 PM66 °FBroken clouds.12 mph73%29.92 "HgN/A
11:50 AM64 °FDrizzle. Broken clouds.13 mph78%29.92 "Hg5 mi
11:20 AM66 °FPartly sunny.13 mph68%29.92 "HgN/A
Weather by CustomWeather, © 2016

See weather overviewHow to use our weather pages